Weather in Helena

United States     46°35′23″N   112°01′13″W
temp.,
°C
wind,
m/s
gust,
m/s
humid.,
%
clouds,
%
prec.,
mm/h
press.,
hPa
HPBL,
m
16 may, sun
sun1600:00+9ssw22614 0.0 101414
03:00+8ssw22681 0.0 101419
06:00+7ssw22710 0.0 101514
09:00+14nne11464 0.0 1014588
12:00+19ne32303 0.0 10111908
15:00+21ne44253 0.0 10092313
18:00+21ne32251 0.0 10071819
21:00+14s22420 0.0 100914
17 may, mon
mon1700:00+11ssw33430 0.0 101037
03:00+10ssw33490 0.0 100932
06:00+9ssw22580 0.0 100926
09:00+17ese12360 0.0 1008564
12:00+23nne23241 0.0 10052276
15:00+25nne35195 0.0 10023348
18:00+24n322094 0.0 10013148
21:00+17w333836 0.0 100357
18 may, tue
tue1800:00+13sw335036 0.1 100636
03:00+12sw22578 0.0 100628
06:00+10ssw226765 0.0 100727
09:00+17wsw1540100 0.0 10051109
12:00+21wsw610235 0.0 10022840
15:00+21wnw61027100 0.0 10022343
18:00+17nw663796 0.0 10051319
21:00+9wnw365398 0.0 1010664
19 may, wed
wed1900:00+5w22601 0.0 101359
03:00+4w11645 0.0 101415
06:00+3wsw11664 0.0 101414
09:00+8n224222 0.0 1011732
12:00+13nne443595 0.0 10071438
15:00+14n334594 0.3 10041573
18:00+8n3679100 2.3 1004593
21:00+4nw2594100 4.8 1010564
20 may, thu
thu2000:00+2nw2497100 6.9 1012361
03:00+1w2499100 5.6 1013158
06:00+1nnw2399100 7.4 1014154
09:000nnw3598100 0.9 1016477
12:000nnw3596100 3.1 1017501
15:000n3697100 1.1 1017509
18:00−1nnw3799100 1.9 1017543
21:00−2nnw2899100 2.3 1019558